When you browse on this site, cookies collect data to enhance your experience and personalize the content and advertising you see.
Visit our Privacy Policy to learn more. By continuing to use the site, you agree to this use of cookies and data.
  • Em Portugal
  • Lista de países
  • Para 7 dias
  • Temperatura da água
  • Mapas de satélite
  • Mapa do tempo
  • Widgets de tempo
  • user-avatar
    Iniciar Sessão

    Previsão horária em Jaú

    Hoje, 22 Maio, Quarta-feira

    Tempo Temperatura Precipitação Vento Pressão Humidade
    00:00 +34°C° 0 mm 1 m/s 756 mmHg 37%
    01:00 +35°C° 0 mm 2 m/s 756 mmHg 37%
    02:00 +34°C° 0 mm 2 m/s 756 mmHg 37%
    03:00 +34°C° 0 mm 3 m/s 756 mmHg 36%
    04:00 +34°C° 0 mm 3 m/s 756 mmHg 37%
    05:00 +35°C° 0 mm 4 m/s 756 mmHg 37%
    06:00 +35°C° 0 mm 4 m/s 756 mmHg 38%
    07:00 +36°C° 0 mm 4 m/s 757 mmHg 35%
    08:00 +37°C° 0 mm 4 m/s 757 mmHg 32%
    09:00 +40°C° 0 mm 4 m/s 757 mmHg 29%
    10:00 +40°C° 0 mm 4 m/s 757 mmHg 29%
    11:00 +41°C° 0 mm 4 m/s 757 mmHg 28%
    12:00 +41°C° 0 mm 5 m/s 756 mmHg 27%
    13:00 +40°C° 0 mm 5 m/s 756 mmHg 27%
    14:00 +40°C° 0 mm 5 m/s 756 mmHg 27%
    15:00 +39°C° 0 mm 5 m/s 755 mmHg 28%
    16:00 +37°C° 0 mm 5 m/s 755 mmHg 30%
    17:00 +36°C° 0 mm 5 m/s 755 mmHg 33%
    18:00 +35°C° 0 mm 5 m/s 755 mmHg 36%
    19:00 +35°C° 0 mm 4 m/s 755 mmHg 37%
    20:00 +34°C° 0 mm 2 m/s 756 mmHg 37%
    21:00 +33°C° 0 mm 1 m/s 756 mmHg 38%
    22:00 +33°C° 0 mm 1 m/s 756 mmHg 36%
    23:00 +34°C° 0 mm 2 m/s 755 mmHg 34%

    Amanhã, 23 Maio, Quinta-feira

    Tempo Temperatura Precipitação Vento Pressão Humidade
    00:00 +34°C° 0 mm 2 m/s 755 mmHg 32%
    01:00 +34°C° 0 mm 3 m/s 755 mmHg 30%
    02:00 +34°C° 0 mm 3 m/s 755 mmHg 29%
    03:00 +34°C° 0 mm 4 m/s 754 mmHg 27%
    04:00 +34°C° 0 mm 4 m/s 755 mmHg 27%
    05:00 +34°C° 0 mm 4 m/s 755 mmHg 26%
    06:00 +34°C° 0 mm 5 m/s 755 mmHg 26%
    07:00 +36°C° 0 mm 5 m/s 755 mmHg 23%
    08:00 +39°C° 0 mm 5 m/s 755 mmHg 20%
    09:00 +40°C° 0 mm 5 m/s 756 mmHg 17%
    10:00 +41°C° 0 mm 4 m/s 755 mmHg 16%
    11:00 +42°C° 0 mm 3 m/s 755 mmHg 14%
    12:00 +43°C° 0 mm 3 m/s 755 mmHg 13%
    13:00 +43°C° 0 mm 4 m/s 754 mmHg 15%
    14:00 +42°C° 0 mm 5 m/s 754 mmHg 17%
    15:00 +41°C° 0 mm 6 m/s 754 mmHg 19%
    16:00 +40°C° 0 mm 6 m/s 753 mmHg 23%
    17:00 +39°C° 0 mm 5 m/s 753 mmHg 26%
    18:00 +36°C° 0 mm 5 m/s 753 mmHg 30%
    19:00 +36°C° 0 mm 4 m/s 754 mmHg 31%
    20:00 +35°C° 0 mm 3 m/s 754 mmHg 33%
    21:00 +34°C° 0 mm 1 m/s 755 mmHg 34%
    22:00 +35°C° 0 mm 2 m/s 755 mmHg 33%
    23:00 +35°C° 0 mm 2 m/s 755 mmHg 31%

    Depois de amanhã, 24 Maio, Sexta-feira

    Tempo Temperatura Precipitação Vento Pressão Humidade
    00:00 +34°C° 0 mm 2 m/s 755 mmHg 30%
    01:00 +34°C° 0 mm 2 m/s 754 mmHg 29%
    02:00 +34°C° 0 mm 2 m/s 754 mmHg 29%
    03:00 +34°C° 0 mm 3 m/s 754 mmHg 28%
    04:00 +35°C° 0 mm 3 m/s 754 mmHg 27%
    05:00 +35°C° 0 mm 3 m/s 755 mmHg 27%
    06:00 +35°C° 0 mm 3 m/s 755 mmHg 26%
    07:00 +36°C° 0 mm 3 m/s 755 mmHg 24%
    08:00 +38°C° 0 mm 3 m/s 755 mmHg 21%
    09:00 +39°C° 0 mm 3 m/s 756 mmHg 18%
    10:00 +40°C° 0 mm 3 m/s 756 mmHg 17%
    11:00 +42°C° 0 mm 3 m/s 755 mmHg 16%
    12:00 +43°C° 0 mm 3 m/s 755 mmHg 14%
    13:00 +42°C° 0 mm 3 m/s 755 mmHg 19%
    14:00 +41°C° 0 mm 4 m/s 754 mmHg 23%
    15:00 +40°C° 0 mm 5 m/s 754 mmHg 27%
    16:00 +38°C° 0 mm 4 m/s 754 mmHg 30%
    17:00 +37°C° 0 mm 4 m/s 754 mmHg 32%
    18:00 +36°C° 0 mm 4 m/s 754 mmHg 35%
    19:00 +36°C° 0 mm 3 m/s 754 mmHg 35%
    20:00 +35°C° 0 mm 3 m/s 755 mmHg 35%
    21:00 +35°C° 0 mm 3 m/s 755 mmHg 35%
    22:00 +35°C° 0 mm 3 m/s 755 mmHg 34%
    23:00 +35°C° 0 mm 2 m/s 755 mmHg 33%

    25 Maio, Sábado

    Tempo Temperatura Precipitação Vento Pressão Humidade
    00:00 +34°C° 0 mm 2 m/s 754 mmHg 32%
    01:00 +34°C° 0 mm 2 m/s 754 mmHg 32%
    02:00 +34°C° 0 mm 2 m/s 754 mmHg 32%
    03:00 +32°C° 0 mm 1 m/s 754 mmHg 32%
    04:00 +33°C° 0 mm 1 m/s 754 mmHg 31%
    05:00 +33°C° 0 mm 1 m/s 754 mmHg 31%
    06:00 +31°C° 0 mm 0 m/s 755 mmHg 30%
    07:00 +34°C° 0 mm 1 m/s 755 mmHg 28%
    08:00 +35°C° 0 mm 1 m/s 755 mmHg 26%
    09:00 +37°C° 0 mm 2 m/s 756 mmHg 24%
    10:00 +38°C° 0 mm 2 m/s 755 mmHg 23%
    11:00 +39°C° 0 mm 2 m/s 755 mmHg 22%
    12:00 +39°C° 0 mm 1 m/s 755 mmHg 21%
    13:00 +39°C° 0 mm 2 m/s 754 mmHg 21%
    14:00 +40°C° 0 mm 2 m/s 754 mmHg 20%
    15:00 +40°C° 0 mm 3 m/s 753 mmHg 19%
    16:00 +39°C° 0 mm 3 m/s 753 mmHg 22%
    17:00 +38°C° 0 mm 4 m/s 753 mmHg 24%
    18:00 +37°C° 0 mm 5 m/s 754 mmHg 26%
    19:00 +37°C° 0 mm 4 m/s 754 mmHg 27%
    20:00 +36°C° 0 mm 4 m/s 754 mmHg 28%
    21:00 +35°C° 0 mm 3 m/s 755 mmHg 29%
    22:00 +35°C° 0 mm 3 m/s 754 mmHg 28%
    23:00 +35°C° 0 mm 3 m/s 754 mmHg 28%

    26 Maio, Domingo

    Tempo Temperatura Precipitação Vento Pressão Humidade
    00:00 +34°C° 0 mm 2 m/s 754 mmHg 27%
    01:00 +34°C° 0 mm 2 m/s 753 mmHg 28%
    02:00 +32°C° 0 mm 2 m/s 753 mmHg 29%
    03:00 +32°C° 0 mm 2 m/s 753 mmHg 30%
    04:00 +32°C° 0 mm 1 m/s 753 mmHg 29%
    05:00 +32°C° 0 mm 1 m/s 754 mmHg 28%
    06:00 +30°C° 0 mm 0 m/s 754 mmHg 27%
    07:00 +31°C° 0 mm 0 m/s 754 mmHg 25%
    08:00 +32°C° 0 mm 0 m/s 754 mmHg 23%
    09:00 +36°C° 0 mm 1 m/s 755 mmHg 21%
    10:00 +36°C° 0 mm 1 m/s 754 mmHg 20%
    11:00 +37°C° 0 mm 1 m/s 754 mmHg 19%
    12:00 +39°C° 0 mm 1 m/s 754 mmHg 18%
    13:00 +39°C° 0 mm 2 m/s 753 mmHg 17%
    14:00 +40°C° 0 mm 3 m/s 753 mmHg 17%
    15:00 +40°C° 0 mm 3 m/s 753 mmHg 17%
    16:00 +39°C° 0 mm 3 m/s 753 mmHg 19%
    17:00 +38°C° 0 mm 3 m/s 753 mmHg 20%
    18:00 +37°C° 0 mm 3 m/s 753 mmHg 22%
    19:00 +37°C° 0 mm 3 m/s 753 mmHg 22%
    20:00 +36°C° 0 mm 2 m/s 753 mmHg 22%
    21:00 +36°C° 0 mm 2 m/s 754 mmHg 22%
    22:00 +34°C° 0 mm 1 m/s 753 mmHg 23%
    23:00 +34°C° 0 mm 1 m/s 753 mmHg 23%

    27 Maio, Segunda-feira

    Tempo Temperatura Precipitação Vento Pressão Humidade
    00:00 +33°C° 0 mm 1 m/s 753 mmHg 23%
    01:00 +34°C° 0 mm 2 m/s 752 mmHg 24%
    02:00 +34°C° 0 mm 2 m/s 752 mmHg 26%
    03:00 +32°C° 0 mm 2 m/s 752 mmHg 27%
    04:00 +32°C° 0 mm 2 m/s 753 mmHg 27%
    05:00 +34°C° 0 mm 2 m/s 753 mmHg 27%
    06:00 +33°C° 0 mm 1 m/s 753 mmHg 27%
    07:00 +35°C° 0 mm 2 m/s 754 mmHg 25%
    08:00 +36°C° 0 mm 2 m/s 754 mmHg 23%
    09:00 +37°C° 0 mm 2 m/s 754 mmHg 22%
    10:00 +38°C° 0 mm 2 m/s 754 mmHg 21%
    11:00 +39°C° 0 mm 1 m/s 754 mmHg 19%
    12:00 +40°C° 0 mm 1 m/s 753 mmHg 18%
    13:00 +40°C° 0 mm 1 m/s 753 mmHg 18%
    14:00 +40°C° 0 mm 2 m/s 753 mmHg 18%
    15:00 +40°C° 0 mm 3 m/s 753 mmHg 18%
    16:00 +39°C° 0 mm 3 m/s 753 mmHg 20%
    17:00 +38°C° 0 mm 3 m/s 753 mmHg 22%
    18:00 +38°C° 0 mm 4 m/s 753 mmHg 24%
    19:00 +37°C° 0 mm 3 m/s 753 mmHg 25%
    20:00 +37°C° 0 mm 3 m/s 753 mmHg 26%
    21:00 +36°C° 0 mm 3 m/s 754 mmHg 27%
    22:00 +36°C° 0 mm 2 m/s 753 mmHg 28%
    23:00 +35°C° 0 mm 2 m/s 753 mmHg 29%
    Mostrar mais